Location: Unspecified
(0.0000°N, 0.0000°E)
Time: 00:20:44
(UTC+00:00)

Tiangong 2 - Pass Details

Date: 16 May 2019
Orbit: 378 x 386 km, 42.8° (Epoch: 16 July)

Event Time Altitude Azimuth Distance (km) Brightness Sun altitude
Rises 18:21:42 0° 218° (SW) 2,243 5.2 -6.0°
Reaches altitude 10° 18:23:48 10° 213° (SSW) 1,388 4.1 -6.5°
Maximum altitude 18:26:52 53° 135° (SE) 469 1.2 -7.2°
Drops below altitude 10° 18:29:54 10° 56° (ENE) 1,378 3.5 -7.9°
Sets 18:31:59 0° 52° (NE) 2,224 4.6 -8.4°
